Time,TemperatureF,DewpointF,PressureIn,WindDirection,WindDirectionDegrees,WindSpeedMPH,WindSpeedGustMPH,Humidity,HourlyPrecipIn,Conditions,Clouds,dailyrainin,SoftwareType,DateUTC
2013-04-28 00:07:00,49.7,43.0,28.46,NW,321,0.0,1.0,78,0.00,,,0.00,weatherlink.com 1.10,2013-04-28 04:07:00,
2013-04-28 00:22:00,49.8,44.0,28.46,NW,321,0.0,0.0,79,0.00,,,0.00,weatherlink.com 1.10,2013-04-28 04:22:00,
2013-04-28 00:37:00,49.7,43.0,28.46,NW,321,0.0,0.0,79,0.00,,,0.00,weatherlink.com 1.10,2013-04-28 04:37:00,
2013-04-28 00:52:00,49.5,44.0,28.46,NW,320,0.0,0.0,80,0.00,,,0.00,weatherlink.com 1.10,2013-04-28 04:52:00,
2013-04-28 01:07:00,49.5,44.0,28.46,NW,321,0.0,0.0,82,0.00,,,0.00,weatherlink.com 1.10,2013-04-28 05:07:00,
2013-04-28 01:22:00,49.5,44.0,28.45,NW,326,0.0,1.0,82,0.00,,,0.00,weatherlink.com 1.10,2013-04-28 05:22:00,
2013-04-28 01:38:00,49.4,44.0,28.45,NNW,333,0.0,1.0,81,0.00,,,0.00,weatherlink.com 1.10,2013-04-28 05:38:00,
2013-04-28 01:53:00,49.0,44.0,28.45,NNW,333,0.0,0.0,82,0.00,,,0.00,weatherlink.com 1.10,2013-04-28 05:53:00,
2013-04-28 02:08:00,49.2,44.0,28.44,NNW,333,0.0,0.0,82,0.00,,,0.00,weatherlink.com 1.10,2013-04-28 06:08:00,
2013-04-28 02:23:00,49.7,44.0,28.43,NNW,343,0.0,2.0,81,0.00,,,0.00,weatherlink.com 1.10,2013-04-28 06:23:00,
2013-04-28 02:38:00,49.5,44.0,28.42,NNW,343,0.0,1.0,81,0.00,,,0.00,weatherlink.com 1.10,2013-04-28 06:38:00,
2013-04-28 02:53:00,49.0,44.0,28.42,NNW,343,0.0,1.0,82,0.00,,,0.00,weatherlink.com 1.10,2013-04-28 06:53:00,
2013-04-28 03:08:00,48.3,44.0,28.41,NNW,343,0.0,0.0,85,0.00,,,0.00,weatherlink.com 1.10,2013-04-28 07:08:00,
2013-04-28 03:23:00,47.7,43.0,28.41,NNW,343,0.0,0.0,85,0.00,,,0.00,weatherlink.com 1.10,2013-04-28 07:23:00,
2013-04-28 03:38:00,48.5,44.0,28.41,NNW,336,0.0,1.0,85,0.00,,,0.00,weatherlink.com 1.10,2013-04-28 07:38:00,
2013-04-28 03:53:00,48.4,44.0,28.41,NNW,336,0.0,1.0,85,0.00,,,0.00,weatherlink.com 1.10,2013-04-28 07:53:00,
2013-04-28 04:08:00,48.6,45.0,28.41,NNW,336,0.0,0.0,86,0.00,,,0.00,weatherlink.com 1.10,2013-04-28 08:08:00,
2013-04-28 04:23:00,48.7,45.0,28.40,NNW,336,0.0,0.0,86,0.00,,,0.00,weatherlink.com 1.10,2013-04-28 08:23:00,
2013-04-28 04:38:00,48.7,45.0,28.40,NNW,336,0.0,1.0,86,0.00,,,0.00,weatherlink.com 1.10,2013-04-28 08:38:00,
2013-04-28 04:53:00,48.7,45.0,28.40,South,174,0.0,1.0,87,0.00,,,0.00,weatherlink.com 1.10,2013-04-28 08:53:00,
2013-04-28 05:08:00,48.5,45.0,28.40,South,176,0.0,0.0,88,0.00,,,0.00,weatherlink.com 1.10,2013-04-28 09:08:00,
2013-04-28 05:23:00,48.7,45.0,28.40,WSW,254,0.0,1.0,88,0.00,,,0.00,weatherlink.com 1.10,2013-04-28 09:23:00,
2013-04-28 05:38:00,49.4,46.0,28.40,NNW,340,0.0,2.0,87,0.00,,,0.00,weatherlink.com 1.10,2013-04-28 09:38:00,
2013-04-28 05:53:00,51.3,46.0,28.40,WNW,285,2.0,5.0,82,0.00,,,0.00,weatherlink.com 1.10,2013-04-28 09:53:00,
2013-04-28 06:08:00,53.7,46.0,28.40,South,183,4.0,6.0,74,0.00,,,0.00,weatherlink.com 1.10,2013-04-28 10:08:00,
2013-04-28 06:23:00,54.8,46.0,28.40,SSE,156,3.0,9.0,72,0.00,,,0.00,weatherlink.com 1.10,2013-04-28 10:23:00,
2013-04-28 06:38:00,55.3,46.0,28.40,South,186,4.0,6.0,71,0.00,,,0.00,weatherlink.com 1.10,2013-04-28 10:38:00,
2013-04-28 06:53:00,55.4,46.0,28.39,SE,143,4.0,9.0,71,0.00,,,0.00,weatherlink.com 1.10,2013-04-28 10:53:00,
2013-04-28 07:08:00,55.6,46.0,28.40,SSE,162,6.0,9.0,71,0.00,,,0.00,weatherlink.com 1.10,2013-04-28 11:08:00,
2013-04-28 07:23:00,55.8,47.0,28.40,SSE,153,7.0,13.0,72,0.00,,,0.00,weatherlink.com 1.10,2013-04-28 11:23:00,
2013-04-28 07:38:00,56.2,47.0,28.40,South,175,3.0,10.0,71,0.00,,,0.00,weatherlink.com 1.10,2013-04-28 11:38:00,
2013-04-28 07:53:00,55.9,47.0,28.40,South,186,7.0,10.0,73,0.00,,,0.00,weatherlink.com 1.10,2013-04-28 11:53:00,
2013-04-28 08:08:00,55.5,47.0,28.41,South,180,10.0,16.0,74,0.00,,,0.00,weatherlink.com 1.10,2013-04-28 12:08:00,
2013-04-28 08:23:00,55.4,49.0,28.40,SSW,197,4.0,9.0,78,0.00,,,0.00,weatherlink.com 1.10,2013-04-28 12:23:00,
2013-04-28 08:38:00,55.0,49.0,28.40,SSW,200,1.0,10.0,80,0.00,,,0.00,weatherlink.com 1.10,2013-04-28 12:38:00,
2013-04-28 08:53:00,54.6,49.0,28.40,SSW,207,1.0,9.0,81,0.01,,,0.01,weatherlink.com 1.10,2013-04-28 12:53:00,
2013-04-28 09:08:00,53.8,49.0,28.41,South,181,4.0,5.0,85,0.02,,,0.02,weatherlink.com 1.10,2013-04-28 13:08:00,
2013-04-28 09:23:00,53.3,50.0,28.41,South,175,1.0,4.0,87,0.02,,,0.02,weatherlink.com 1.10,2013-04-28 13:23:00,
2013-04-28 09:38:00,53.0,49.0,28.41,South,170,0.0,4.0,87,0.02,,,0.02,weatherlink.com 1.10,2013-04-28 13:38:00,
2013-04-28 09:53:00,53.2,49.0,28.41,SSW,204,3.0,5.0,86,0.01,,,0.02,weatherlink.com 1.10,2013-04-28 13:53:00,
2013-04-28 10:08:00,54.1,50.0,28.41,South,184,2.0,7.0,86,0.00,,,0.02,weatherlink.com 1.10,2013-04-28 14:08:00,
2013-04-28 10:23:00,54.7,50.0,28.41,South,175,6.0,8.0,85,0.00,,,0.02,weatherlink.com 1.10,2013-04-28 14:23:00,
2013-04-28 10:38:00,55.1,50.0,28.41,South,190,3.0,9.0,83,0.00,,,0.02,weatherlink.com 1.10,2013-04-28 14:38:00,
2013-04-28 10:53:00,54.8,50.0,28.41,SW,228,4.0,8.0,85,0.01,,,0.03,weatherlink.com 1.10,2013-04-28 14:53:00,
2013-04-28 11:08:00,54.1,50.0,28.41,SSE,163,5.0,8.0,86,0.02,,,0.04,weatherlink.com 1.10,2013-04-28 15:08:00,
2013-04-28 11:23:00,54.0,51.0,28.41,SSW,197,3.0,4.0,88,0.04,,,0.06,weatherlink.com 1.10,2013-04-28 15:23:00,
2013-04-28 11:38:00,54.2,51.0,28.41,SSE,160,3.0,7.0,88,0.05,,,0.07,weatherlink.com 1.10,2013-04-28 15:38:00,
2013-04-28 11:53:00,54.3,51.0,28.41,South,187,3.0,8.0,88,0.05,,,0.08,weatherlink.com 1.10,2013-04-28 15:53:00,
2013-04-28 12:08:00,54.3,50.0,28.40,South,175,5.0,7.0,86,0.04,,,0.08,weatherlink.com 1.10,2013-04-28 16:08:00,
2013-04-28 12:23:00,54.3,51.0,28.40,South,188,3.0,6.0,87,0.02,,,0.08,weatherlink.com 1.10,2013-04-28 16:23:00,
2013-04-28 12:38:00,54.1,50.0,28.40,SSE,161,7.0,10.0,85,0.02,,,0.09,weatherlink.com 1.10,2013-04-28 16:38:00,
2013-04-28 12:53:00,53.9,49.0,28.39,SSE,154,2.0,12.0,84,0.01,,,0.09,weatherlink.com 1.10,2013-04-28 16:53:00,
2013-04-28 13:08:00,53.9,49.0,28.39,SSE,165,6.0,9.0,84,0.01,,,0.09,weatherlink.com 1.10,2013-04-28 17:08:00,
2013-04-28 13:23:00,53.4,49.0,28.39,SSE,167,4.0,9.0,84,0.01,,,0.09,weatherlink.com 1.10,2013-04-28 17:23:00,
2013-04-28 13:38:00,52.9,48.0,28.39,West,271,3.0,9.0,83,0.00,,,0.09,weatherlink.com 1.10,2013-04-28 17:38:00,
2013-04-28 13:53:00,53.5,48.0,28.38,South,169,9.0,14.0,81,0.00,,,0.09,weatherlink.com 1.10,2013-04-28 17:53:00,
2013-04-28 14:08:00,53.7,48.0,28.38,SW,219,7.0,14.0,81,0.00,,,0.09,weatherlink.com 1.10,2013-04-28 18:08:00,
2013-04-28 14:23:00,53.6,48.0,28.38,South,185,8.0,11.0,81,0.00,,,0.09,weatherlink.com 1.10,2013-04-28 18:23:00,
2013-04-28 14:38:00,53.6,48.0,28.37,SSW,206,6.0,12.0,81,0.00,,,0.09,weatherlink.com 1.10,2013-04-28 18:38:00,
2013-04-28 14:54:00,53.7,48.0,28.37,SSW,203,5.0,10.0,81,0.00,,,0.09,weatherlink.com 1.10,2013-04-28 18:54:00,
2013-04-28 15:09:00,53.8,48.0,28.36,South,191,3.0,10.0,81,0.00,,,0.09,weatherlink.com 1.10,2013-04-28 19:09:00,
2013-04-28 15:24:00,53.9,48.0,28.35,SW,214,3.0,8.0,81,0.00,,,0.09,weatherlink.com 1.10,2013-04-28 19:24:00,
2013-04-28 15:39:00,53.8,48.0,28.35,SW,224,0.0,7.0,81,0.00,,,0.09,weatherlink.com 1.10,2013-04-28 19:39:00,
2013-04-28 15:54:00,53.7,48.0,28.34,South,172,5.0,10.0,82,0.00,,,0.09,weatherlink.com 1.10,2013-04-28 19:54:00,
2013-04-28 16:09:00,54.0,48.0,28.34,South,181,12.0,16.0,81,0.00,,,0.09,weatherlink.com 1.10,2013-04-28 20:09:00,
2013-04-28 16:24:00,54.0,48.0,28.34,South,188,9.0,15.0,81,0.00,,,0.00,weatherlink.com 1.10,2013-04-28 20:24:00,
2013-04-28 16:39:00,54.0,48.0,28.33,SSW,192,4.0,13.0,80,0.00,,,0.00,weatherlink.com 1.10,2013-04-28 20:39:00,
2013-04-28 16:54:00,53.9,48.0,28.33,South,172,3.0,15.0,80,0.00,,,0.00,weatherlink.com 1.10,2013-04-28 20:54:00,
2013-04-28 17:09:00,53.9,48.0,28.32,SSW,197,7.0,12.0,80,0.00,,,0.00,weatherlink.com 1.10,2013-04-28 21:09:00,
2013-04-28 17:24:00,54.0,48.0,28.32,SSW,194,9.0,15.0,80,0.00,,,0.00,weatherlink.com 1.10,2013-04-28 21:24:00,
2013-04-28 17:39:00,53.9,48.0,28.31,SW,232,6.0,14.0,79,0.00,,,0.00,weatherlink.com 1.10,2013-04-28 21:39:00,
2013-04-28 17:54:00,53.9,48.0,28.32,SSW,198,2.0,18.0,80,0.00,,,0.00,weatherlink.com 1.10,2013-04-28 21:54:00,
2013-04-28 18:09:00,53.6,47.0,28.31,SSE,153,4.0,14.0,79,0.00,,,0.00,weatherlink.com 1.10,2013-04-28 22:09:00,
2013-04-28 18:24:00,53.6,47.0,28.30,South,185,8.0,13.0,79,0.00,,,0.00,weatherlink.com 1.10,2013-04-28 22:24:00,
2013-04-28 18:39:00,53.3,47.0,28.31,South,177,7.0,13.0,79,0.00,,,0.00,weatherlink.com 1.10,2013-04-28 22:39:00,
2013-04-28 18:54:00,53.1,47.0,28.31,WSW,239,3.0,12.0,80,0.00,,,0.00,weatherlink.com 1.10,2013-04-28 22:54:00,
2013-04-28 19:09:00,52.9,47.0,28.31,South,188,4.0,12.0,79,0.00,,,0.00,weatherlink.com 1.10,2013-04-28 23:09:00,
2013-04-28 19:24:00,52.5,47.0,28.31,South,177,3.0,7.0,80,0.00,,,0.00,weatherlink.com 1.10,2013-04-28 23:24:00,
2013-04-28 19:39:00,52.2,47.0,28.32,SSE,148,3.0,5.0,82,0.00,,,0.00,weatherlink.com 1.10,2013-04-28 23:39:00,
2013-04-28 19:54:00,51.8,47.0,28.33,South,169,4.0,6.0,83,0.00,,,0.00,weatherlink.com 1.10,2013-04-28 23:54:00,
2013-04-28 20:09:00,51.4,47.0,28.33,South,174,3.0,6.0,84,0.00,,,0.00,weatherlink.com 1.10,2013-04-29 00:09:00,
2013-04-28 20:24:00,51.0,47.0,28.33,South,176,2.0,5.0,85,0.00,,,0.00,weatherlink.com 1.10,2013-04-29 00:24:00,
2013-04-28 20:39:00,50.6,47.0,28.33,SSE,167,3.0,5.0,87,0.00,,,0.00,weatherlink.com 1.10,2013-04-29 00:39:00,
2013-04-28 20:54:00,50.4,47.0,28.33,South,186,1.0,6.0,87,0.00,,,0.00,weatherlink.com 1.10,2013-04-29 00:54:00,
2013-04-28 21:09:00,50.6,47.0,28.33,SSW,207,0.0,4.0,87,0.00,,,0.00,weatherlink.com 1.10,2013-04-29 01:09:00,
2013-04-28 21:24:00,50.9,47.0,28.34,SSW,197,1.0,7.0,85,0.00,,,0.00,weatherlink.com 1.10,2013-04-29 01:24:00,
2013-04-28 21:39:00,50.8,47.0,28.34,South,181,2.0,6.0,86,0.00,,,0.00,weatherlink.com 1.10,2013-04-29 01:39:00,
2013-04-28 21:54:00,50.9,47.0,28.34,South,169,5.0,9.0,86,0.00,,,0.00,weatherlink.com 1.10,2013-04-29 01:54:00,
2013-04-28 22:09:00,50.7,47.0,28.34,South,177,3.0,4.0,87,0.00,,,0.00,weatherlink.com 1.10,2013-04-29 02:09:00,
2013-04-28 22:24:00,50.2,47.0,28.34,SW,233,0.0,3.0,89,0.00,,,0.00,weatherlink.com 1.10,2013-04-29 02:24:00,
2013-04-28 22:39:00,49.8,47.0,28.33,South,174,2.0,3.0,90,0.00,,,0.00,weatherlink.com 1.10,2013-04-29 02:39:00,
2013-04-28 22:54:00,49.8,47.0,28.33,South,177,1.0,4.0,91,0.00,,,0.00,weatherlink.com 1.10,2013-04-29 02:54:00,
2013-04-28 23:09:00,49.6,47.0,28.32,South,174,0.0,1.0,91,0.00,,,0.00,weatherlink.com 1.10,2013-04-29 03:09:00,
2013-04-28 23:24:00,49.5,47.0,28.32,South,174,2.0,2.0,92,0.00,,,0.00,weatherlink.com 1.10,2013-04-29 03:24:00,
2013-04-28 23:40:00,49.5,47.0,28.32,SSE,166,0.0,1.0,92,0.00,,,0.00,weatherlink.com 1.10,2013-04-29 03:40:00,
2013-04-28 23:55:00,49.5,47.0,28.32,SSE,167,0.0,2.0,92,0.00,,,0.00,weatherlink.com 1.10,2013-04-29 03:55:00,